Weather in Hanoi

Vietnam     21°01′45″N   105°51′08″E
temp.,
°C
wind,
m/s
gust,
m/s
humid.,
%
clouds,
%
prec.,
mm/h
press.,
hPa
HPBL,
m
26 february, fri
fri2601:00+23sse248068 0.1 1007489
04:00+23se2381100 0.0 1006405
07:00+23sse2380100 0.1 1008437
10:00+24se2376100 0.1 1010584
13:00+25ese2374100 0.1 1008587
16:00+26ese336688 0.0 1006870
19:00+25ese347494 0.1 1008394
22:00+24sse4680100 0.1 1011286
27 february, sat
sat2701:00+23se368299 0.3 1011331
04:00+22se4778100 0.2 1010452
07:00+22e2478100 0.3 1012549
10:00+22ese2379100 0.6 1014481
13:00+24se257098 1.1 1012784
16:00+25se466896 0.6 1010924
19:00+23se587789 0.6 1012587
22:00+21se368584 0.0 1013474
28 february, sun
sun2801:00+21se478792 0.6 1012527
04:00+21se488798 0.5 1011503
07:00+22se488898 0.8 1013566
10:00+23sse51081100 0.2 1014809
13:00+27sse7116798 0.6 10111210
16:00+26sse8116887 0.1 10091068
19:00+24se7127692 0.1 1011798
22:00+23sse6118096 0.0 1013819
1 march, mon
mon101:00+23sse6118397 0.0 1012754
04:00+23sse51084100 0.1 1012718
07:00+23sse51084100 0.1 1014665
10:00+24sse5878100 0.1 1016749
13:00+25sse5775100 0.1 1013797
16:00+25se5874100 0.0 1012768
19:00+24se488085 0.0 1013597
22:00+23se488193 0.0 1015562
2 march, tue
tue201:00+22se488296 0.0 1014506
04:00+22se3783100 0.0 1014419
07:00+22ese2582100 0.1 1016336
10:00+22ene2480100 0.3 1018428
13:00+23e2377100 0.6 1016505
16:00+24ene2370100 0.1 1014709
19:00+23se267898 0.1 1015392
22:00+22se368097 0.0 1018442